Weather History for Kinloss, United Kingdom

Change the Weather History Date:

Wednesday, February 22, 2012

  Actual Average Record
Temperature  
Mean Temperature 51 °F -  
Max Temperature 56 °F 46 °F 55 °F (2012)
Min Temperature 46 °F 34 °F 21 °F (2013)
Degree Days  
Heating Degree Days 14    
Growing Degree Days 1 (Base 50)    
Moisture  
Dew Point 43 °F    
Average Humidity 75    
Maximum Humidity 82    
Minimum Humidity 62    
Precipitation  
Precipitation 0.00 in 0.06 in - ()
Sea Level Pressure  
Sea Level Pressure 29.60 in    
Wind  
Wind Speed 13 mph ()    
Max Wind Speed 24 mph    
Max Gust Speed 33 mph    
Visibility 6.2 miles    
Events Rain    
Averages and records for this station are not official NWS values.
T = Trace of Precipitation, MM = Missing Value Source: Averaged Metar Reports

Daily Weather History Graph

Daily Weather History Graph

Search for Another Location

Airport:

Trip Planner

Search our weather history database for the weather conditions in past years. The results will help you decide how hot, cold, wet, or windy it might be!

Date:

Astronomy

Feb. 22, 2012 Rise Set
Actual Time 7:28 AM GMT 5:28 PM GMT
Civil Twilight 6:48 AM GMT 6:08 PM GMT
Nautical Twilight 6:03 AM GMT 6:53 PM GMT
Astronomical Twilight 5:18 AM GMT 7:38 PM GMT
Moon 7:03 AM GMT (2/22) 6:43 PM GMT (2/22)
Length of Visible Light 11h 19m
Length of Day
9h 59m
New Moon, 0% of the Moon is Illuminated
Feb 22
New Moon
Mar 1
First Quarter
Mar 8
Full
Mar 15
Last Quarter
Mar 22
New

Hourly Weather History & Observations

Time (GMT) Temp. Windchill Dew Point Humidity Pressure Visibility Wind Dir Wind Speed Gust Speed Precip Events Conditions
12:50 AM 50.0 °F - 37.4 °F 62% 29.74 in 6.2 mi WSW 18.4 mph - N/A   Mostly Cloudy
1:50 AM 50.0 °F - 37.4 °F 62% 29.74 in 6.2 mi WSW 20.7 mph 33.4 mph N/A Rain Light Rain Showers
2:50 AM 47 °F - 41 °F 74% 29.74 in 22 mi SW 13.8 mph - - Rain Light Rain
2:50 AM 46.4 °F 40.4 °F 41.0 °F 81% 29.74 in 6.2 mi SW 13.8 mph - N/A Rain Light Rain
3:50 AM 46.4 °F 39.8 °F 39.2 °F 76% 29.71 in 6.2 mi SW 16.1 mph - N/A Rain Light Rain
4:50 AM 46.4 °F 41.1 °F 37.4 °F 71% 29.68 in 6.2 mi SW 11.5 mph - N/A   Mostly Cloudy
5:50 AM 46 °F - 39 °F 69% 29.65 in 34 mi SW 6.9 mph - - Rain Light Rain Showers
5:50 AM 46.4 °F 42.9 °F 39.2 °F 76% 29.62 in 6.2 mi SW 6.9 mph - N/A Rain Light Rain Showers
6:50 AM 48.2 °F - 42.8 °F 82% 29.59 in 6.2 mi WSW 8.1 mph - N/A Rain Light Rain
7:50 AM 50.0 °F - 44.6 °F 82% 29.56 in - SW 10.4 mph - N/A Rain Light Rain Showers
8:50 AM 50 °F - 45 °F 76% 29.54 in 28 mi SSW 8.1 mph - - Rain Light Rain Showers
8:50 AM 50.0 °F - 44.6 °F 82% 29.53 in 6.2 mi SSW 8.1 mph - N/A Rain Light Rain
9:50 AM 51.8 °F - 46.4 °F 82% 29.47 in 6.2 mi SSW 8.1 mph - N/A   Mostly Cloudy
10:50 AM 55.4 °F - 46.4 °F 72% 29.44 in 6.2 mi WSW 9.2 mph 23.0 mph N/A   Mostly Cloudy
11:50 AM 56 °F - 48 °F 66% 29.44 in 40 mi WSW 18.4 mph - -   Mostly Cloudy
11:50 AM 55.4 °F - 48.2 °F 77% 29.44 in 6.2 mi WSW 18.4 mph - N/A   Mostly Cloudy
12:50 PM 55.4 °F - 48.2 °F 77% 29.42 in 6.2 mi WSW 16.1 mph - N/A   Mostly Cloudy
1:50 PM 53.6 °F - 48.2 °F 82% 29.44 in 6.2 mi West 11.5 mph - N/A   Mostly Cloudy
2:50 PM 54 °F - 48 °F 74% 29.48 in 47 mi WSW 15.0 mph - -   Partly Cloudy
2:50 PM 55.4 °F - 48.2 °F 77% 29.47 in 6.2 mi WSW 15.0 mph - N/A   Mostly Cloudy
3:50 PM 53.6 °F - 46.4 °F 77% 29.47 in 6.2 mi West 21.9 mph - N/A   Mostly Cloudy
4:50 PM 53.6 °F - 46.4 °F 77% 29.53 in 6.2 mi West 23.0 mph - N/A   Mostly Cloudy
5:50 PM 48 °F - 43 °F 77% 29.60 in 34 mi WNW 15.0 mph - -   Mostly Cloudy
5:50 PM 48.2 °F - 42.8 °F 82% 29.59 in 6.2 mi WNW 15.0 mph - N/A   Mostly Cloudy
6:50 PM 48.2 °F - 41.0 °F 76% 29.62 in 6.2 mi West 24.2 mph - N/A   Partly Cloudy
7:50 PM 48.2 °F - 39.2 °F 71% 29.65 in 6.2 mi West 21.9 mph - N/A   Unknown
8:50 PM 47 °F - 42 °F 75% 29.68 in 37 mi West 23.0 mph - - Rain Rain
8:50 PM 48.2 °F - 41.0 °F 76% 29.68 in 6.2 mi West 23.0 mph - N/A   Partly Cloudy
9:50 PM 48.2 °F - 39.2 °F 71% 29.68 in 6.2 mi West 21.9 mph - N/A   Scattered Clouds
10:50 PM 48.2 °F - 39.2 °F 71% 29.71 in 6.2 mi West 15.0 mph - N/A   Mostly Cloudy
11:50 PM 47 °F - 40 °F 70% 29.76 in 28 mi WNW 10.4 mph - -   Scattered Clouds
11:50 PM 46.4 °F 41.5 °F 41.0 °F 81% 29.74 in 6.2 mi WNW 10.4 mph - N/A   Mostly Cloudy